#timestamp,LO_Frequency,Hit,StdDev 
1507039215.1,286046997.4,N
1507039235.9,286046995.6,N
1507039255.7,286046996.1,N
1507039275.5,286046997.3,N
1507039295.4,286046999.3,N
1507039315.2,286047002.8,N
1507039335.0,286047000.6,N
1507039335.9,286047000.6,N
1507039355.8,286046999.3,N
1507039375.6,286047002.9,N
1507039395.4,286047002.4,N
1507039415.2,286047004.0,N
1507039435.1,286047004.8,N
1507039436.0,286047004.8,N
1507039455.8,286047007.5,N
1507039475.6,286047004.6,N
1507039495.5,286047004.8,N
1507039515.3,286047008.4,N
1507039535.1,286047008.5,N
1507039555.9,286047007.5,N
1507039575.7,286047006.8,N
1507039595.5,286047007.3,N
1507039615.5,286047005.1,N
1507039635.3,286047002.9,N
1507039655.1,286047007.4,N
1507039675.9,286047003.3,N
1507039695.7,286046998.4,N
1507039715.5,286047000.9,N
1507039735.4,286047001.7,N
1507039755.2,286047004.1,N
1507039775.0,286047002.1,N
1507039775.9,286047002.1,N
1507039795.8,286047004.0,N
1507039815.6,286047004.4,N
1507039835.4,286047000.4,N
1507039855.3,286047004.1,N
1507039875.1,286047006.2,N
1507039876.0,286047006.2,N
1507039895.8,286047008.6,Y
1507039915.7,286047005.8,P
1507039935.5,286047003.0,P
1507039955.3,286047004.3,P
1507039975.2,286047001.3,N
1507039995.9,286047003.6,N
1507040015.7,286047001.2,N
1507040035.6,286046997.8,N
1507040055.4,286046997.2,N
1507040075.2,286047001.2,N
1507040095.1,286046999.3,N
1507040096.0,286046999.3,N
1507040115.8,286046996.8,N
1507040135.6,286046996.6,N
1507040155.4,286047001.1,N
1507040175.3,286047000.9,N
1507040195.1,286046998.1,N
1507040215.8,286046998.7,N
1507040235.7,286047000.2,N
1507040255.5,286047000.5,N
1507040275.3,286047000.8,N
1507040295.2,286046995.9,N
1507040315.9,286046994.9,N
1507040335.7,286046996.2,N
1507040355.6,286046996.2,N
1507040375.4,286046997.3,N
1507040395.2,286046997.0,N
1507040415.1,286046995.6,N
1507040416.0,286046995.6,N
1507040435.8,286046998.1,N
1507040455.6,286047001.2,N
1507040475.5,286046998.8,N
1507040495.3,286047001.1,N
1507040515.1,286046998.6,N
1507040535.8,286046997.1,N
1507040555.7,286046996.7,N
1507040575.5,286046998.7,N
1507040595.3,286046998.4,N
1507040615.2,286047000.9,N
1507040635.0,286047002.6,N
1507040635.9,286047002.6,N
1507040655.7,286046996.7,N
1507040675.6,286046997.5,N
1507040695.4,286046999.9,N
1507040715.2,286047000.4,N
1507040735.1,286047001.2,N
1507040736.0,286047001.2,N
1507040755.8,286046997.3,N
1507040775.6,286046995.7,N
1507040795.5,286046997.3,N
1507040815.3,286046997.2,N
1507040835.1,286046993.8,N
1507040855.9,286046992.6,Y
1507040875.7,286046990.5,P
1507040895.5,286046992.7,N
1507040915.4,286046992.9,N
1507040935.2,286046992.4,N
1507040955.0,286046997.5,N
1507040955.9,286046997.5,N
1507040975.8,286046998.9,N
1507040995.6,286046997.0,N
1507041015.4,286046998.5,N
1507041035.4,286046996.7,N
1507041055.3,286046999.6,N
1507041075.1,286046999.2,N
1507041076.0,286046999.2,N
1507041095.8,286046995.4,N
1507041115.7,286046997.2,N
1507041135.5,286046999.1,N
1507041155.3,286046999.8,N
1507041175.1,286047000.1,N
1507041195.9,286046998.7,N
1507041215.7,286046998.6,N
1507041235.5,286047000.1,N
1507041255.4,286047000.1,N
1507041275.2,286047000.6,N
1507041295.0,286046999.4,N
1507041295.9,286046999.4,N
1507041315.8,286046998.4,N
1507041335.6,286047000.9,N
1507041355.4,286046998.9,N
1507041375.3,286046994.9,N
1507041395.1,286046996.8,N
1507041396.0,286046996.8,N
1507041415.8,286046995.3,N
1507041435.7,286046996.6,N
1507041455.5,286046999.6,N
1507041475.3,286046998.7,N
1507041495.1,286046998.9,N
1507041515.9,286046997.5,N
1507041535.7,286046994.0,Y
1507041555.6,286046993.4,P
1507041575.4,286046997.7,N
1507041595.2,286047001.2,N
1507041615.0,286047002.2,N
1507041615.9,286047002.2,N
1507041635.8,286047001.1,N
1507041655.6,286047002.3,N
1507041675.4,286047005.8,N
1507041695.3,286047003.8,N
1507041715.1,286047002.8,N
1507041735.8,286047002.7,N
1507041755.7,286047003.6,N
1507041775.5,286047001.0,N
1507041795.3,286046999.0,N
1507041815.2,286046997.1,N
1507041835.9,286047000.2,N
1507041855.7,286047002.0,N
1507041875.6,286046999.1,N
1507041895.4,286046999.6,N
1507041915.2,286046996.6,N
1507041935.0,286046996.6,N
1507041935.9,286046996.6,N
1507041955.8,286046998.2,N
1507041975.6,286046995.5,N
1507041995.4,286046999.4,N
1507042015.3,286046998.3,N
1507042035.1,286046999.1,N
1507042055.8,286046999.3,N
1507042075.7,286046998.3,N
1507042095.5,286046999.1,N
1507042115.3,286046996.1,N
1507042135.2,286046996.2,N
1507042155.9,286046992.5,N
1507042175.7,286046987.8,Y
1507042195.6,286046987.3,P
1507042215.4,286046992.3,N
1507042235.2,286046991.8,N
1507042255.1,286046992.4,N
1507042256.0,286046992.4,N
1507042275.8,286046994.6,N
1507042295.6,286046994.6,N
1507042315.5,286046996.1,N
1507042335.3,286046995.9,N
1507042355.1,286046996.3,N
1507042375.8,286046992.2,N
1507042395.7,286046994.6,N
1507042415.5,286046992.7,N
1507042435.3,286046994.8,N
1507042455.2,286046993.9,N
1507042475.0,286046997.9,N
1507042475.9,286046997.9,N
1507042495.7,286046997.8,N
1507042515.6,286046997.4,N
1507042535.4,286047000.2,N
1507042555.2,286046997.8,N
1507042575.1,286046997.8,N
1507042576.0,286046997.8,N
1507042595.8,286046997.9,N
1507042615.6,286046995.7,N
1507042635.5,286046995.6,N
1507042655.3,286046996.4,N
1507042675.1,286046992.9,N
1507042695.9,286046992.9,N
1507042715.7,286046995.2,N
1507042735.5,286046995.3,N
1507042755.3,286046995.7,N
1507042775.2,286046994.1,N
1507042795.0,286046993.6,Y
1507042795.9,286046993.6,P
